Regional Weather Roundup
Issued by NWS Wakefield, VA

Home | Current Version | Previous Version | Text Only | Print | Product List | Glossary On
Versions: 1 2 3 4 5 6 7 8 9 10 11 12 13 14 15 16 17 18 19 20 21 22 23 24 25 26 27 28 29 30 31 32 33 34 35 36 37 38 39 40 41 42 43 44 45 46 47 48 49 50
000
ASUS41 KAKQ 210410
RWRAKQ

REGIONAL WEATHER ROUNDUP
NATIONAL WEATHER SERVICE WAKEFIELD VA
1200 AM EDT TUE OCT 21 2014

Note: "fair" indicates few or no clouds below 12,000 feet with no
significant weather and/or obstructions to visibility. * = Denotes
station may not report precipitation (e.g., rain,snow,etc.),
thunder or fog.

VAZ042-051-052>054-056-210500-
NORTHERN VIRGINIA

CITY           SKY/WX    TMP DP  RH WIND       PRES   REMARKS
WASH NATIONAL  LGT RAIN  58  49  72 S6        29.95F
DULLES         LGT RAIN  55  49  80 S7        29.93F
FORT BELVOIR   CLOUDY    54  52  94 SE3       29.94F
QUANTICO       CLOUDY    58  47  66 SW8       29.95F
FREDERICKSBRG* CLOUDY    56  50  81 SE3       29.93F
STAFFORD*      CLOUDY    53  53 100 CALM      29.98F
WARRENTON      CLOUDY    56  53  90 CALM      29.92F
CULPEPER*      CLOUDY    55  50  82 CALM      29.93F
MANASSAS*      CLOUDY    55  54  94 CALM      29.93F
LEESBURG*      LGT RAIN  55  54  94 S6        29.93F
WINCHESTER     CLOUDY    52  46  82 CALM      29.92F
FRONT ROYAL*   MOCLDY    50  46  87 S3        29.91F
LURAY*         MOCLDY    54  52  94 CALM      29.92F
$$

VAZ048-049-060>072-079>083-210500-
CENTRAL AND SOUTH CENTRAL VIRGINIA...AND NORTH CENTRAL NORTH CAROLINA

CITY           SKY/WX    TMP DP  RH WIND       PRES   REMARKS
RICHMOND       CLOUDY    57  46  66 S3        29.96F
CHESTERFIELD*  CLOUDY   N/A N/A N/A S5        29.96F
PETERSBURG*    CLOUDY    52  46  79 S3        29.97F
HANOVER        CLOUDY    57  46  66 SE3       29.97F
TAPPAHANNOCK*  CLOUDY    52  45  77 CALM      29.96F
CHARLOTTSVILLE CLOUDY    56  49  77 S5        29.93F
ORANGE*        CLOUDY    57  48  72 SE5       29.94F
LOUISA*        CLOUDY    57  46  67 CALM      29.93F
FARMVILLE*     CLOUDY    57  46  67 S7        29.94S
CREWE*         CLOUDY    56  46  69 CALM      29.96F
FORT PICKETT*  CLOUDY    56  47  71 S5        29.97S
LUNENBURG*     CLOUDY    55  49  79 CALM      29.96F
SOUTH HILL*    CLOUDY    55  52  88 S3        30.02F
LAWRENCEVILLE* CLOUDY    54  48  81 CALM      29.97F
ROANOKE RAPIDS CLOUDY    48  46  93 CALM      29.98F
RALEIGH        LGT RAIN  55  49  80 CALM      29.98F
$$

VAZ088>098-210500-
SOUTHEAST VIRGINIA

CITY           SKY/WX    TMP DP  RH WIND       PRES   REMARKS
NORFOLK        MOCLDY    58  52  80 S7        29.98F
VIRGINIA BEACH MOCLDY    61  52  72 S7        29.97F
NORFOLK NAVAL  MOCLDY    64  55  72 S10       29.99F
WEST POINT*    MOCLDY    58  48  71 CALM      29.98F
NEWPORT NEWS   CLOUDY    62  54  74 S7        29.98F
LANGLEY AFB    CLOUDY    59  55  84 S8        29.98F
FORT EUSTIS    MOCLDY    59  55  87 S3        29.96F
WILLIAMSBURG*  MOCLDY    57  54  88 S5        29.98F
HR EXEC AP*    MOCLDY    55  52  88 S3        30.00F
FRANKLIN*      MOCLDY    55  52  88 S3        29.98F
WAKEFIELD      MOCLDY    52  49  89 CALM      29.98F
$$

VAZ020-022-025-037-045-210500-
WEST CENTRAL AND SOUTHWEST VIRGINIA

CITY           SKY/WX    TMP DP  RH WIND       PRES   REMARKS
STAUNTON*      CLOUDY    55  48  75 S5        29.95F
HOT SPRINGS VA CLOUDY    48  41  76 W15G22    29.94F
LYNCHBURG      MOCLDY    52  49  89 CALM      29.96F
DANVILLE       CLOUDY    57  49  74 CALM      29.97F
SOUTH BOSTON*  NOT AVBL
MARTINSVILLE   MOCLDY    52  52 100 CALM      30.00S
ROANOKE        MOCLDY    55  42  61 CALM      29.97F
BLACKSBURG     MOCLDY    48  48 100 CALM      30.00S
DUBLIN*        CLOUDY    53  49  84 SW6       30.00S
MARION*        CLOUDY    52  47  84 W5        30.02F
HILLSVILLE*    MOCLDY    52  47  84 SW5       30.00F
RICHLANDS*     CLOUDY    56  49  76 W6        30.00S
WISE*          CLEAR     50  43  76 SW7       30.01F
ABINGDON*      CLOUDY    55  50  82 W3        30.01S
$$

MDZ021>025-VAZ099-100-210500-
SOUTHERN MARYLAND AND THE DELMARVA PENINSULA

CITY           SKY/WX    TMP DP  RH WIND       PRES   REMARKS
PATUXENT RIVER PTCLDY    57  46  66 SW5       29.95F
BAY BRIDGE APT NOT AVBL
LEONARDTOWN    PTCLDY    54  43  66 CALM      29.97F
DOVER          MOCLDY    53  46  76 SE6       29.94F
GEORGETOWN     CLOUDY    53  45  74 CALM      29.97F
EASTON         CLOUDY    54  50  86 CALM      29.99F
CAMBRIDGE      CLOUDY    54  46  76 SE3       29.96F
SALISBURY      CLOUDY    52  46  80 CALM      29.97F
OCEAN CITY     MOCLDY    50  46  86 CALM      29.97F
WALLOPS ISLAND CLOUDY    62  51  67 SW8       29.98F
ACCOMACK*      CLOUDY    55  50  82 SW3       29.98S
$$

NCZ012>017-030>032-210500-
EASTERN NORTH CAROLINA

CITY           SKY/WX    TMP DP  RH WIND       PRES   REMARKS
ELIZABETH CITY MOCLDY    59  54  83 S3        29.99F
AHOSKIE*       MOCLDY    51  49  95 CALM      29.99F
EDENTON*       MOCLDY    60  56  87 SW5       29.99F
CURRITUCK*     MOCLDY    58  54  88 CALM      29.99F
KILL DEVIL HLS MOCLDY    64  60  87 S3        29.98F
MANTEO         MOCLDY    59  57  93 CALM      30.00F
CAPE HATTERAS  MOCLDY    70  60  70 S17G23    30.00F
TARBORO*       MOCLDY    58  55  91 CALM      30.00F
GOLDSBORO      MOCLDY    57  57  98 CALM      29.98F
WASHINGTON     PTCLDY    60  56  84 CALM      29.99F
GREENVILLE     MOCLDY    55  55 100 CALM      30.01F
NEW BERN       PTCLDY    58  55  90 CALM      30.00F
WILMINGTON     MOCLDY    58  56  93 CALM      29.99F
$$

VAZ048-210500-
ELSEWHERE

CITY           SKY/WX    TMP DP  RH WIND       PRES   REMARKS
HARRISBURG PA  CLOUDY    54  49  83 CALM      29.91F
BALTIMORE      CLOUDY    57  44  62 S8        29.92F
ANNAPOLIS      MOCLDY    59  43  55 S5        29.94F
ANDREWS AFB    CLOUDY    56  45  68 S5        29.94F
WILMINGTON DE  MOCLDY    55  45  68 CALM      29.96F
PHILADELPHIA   CLOUDY    57  44  62 S6        29.96F
WILDWOOD NJ*   MOCLDY    55  45  67 S3        29.98F
ATLANTIC CITY  MOCLDY    54  45  71 SW3       29.98F
HENDERSON NC   CLOUDY    54  48  81 CALM      29.98S
GREENSBORO     CLOUDY    60  49  66 SW9       29.98S
ROCKY MOUNT    MOCLDY    53  51  93 CALM      29.99F
FAYETTEVILLE   PTCLDY    58  55  90 W3        29.99S
CHARLOTTE      CLOUDY    58  51  78 CALM      30.00S
$$

VAZ100-210500-
MARINE

STATION/POSITION TIME  TEMP    WIND        PRES    WAVE   SWELL
                       AIR SEA DIR/SP/G            HT/PER HT/PER
                 (UTC) (F)     (DEG/KT/KT) (MB)    (FT/S) (FT/S)
44066 TX TWR #4  0400   64 66  230/ 17/ 21 1015.8F   5/ 6   2/12
CAPE MAY NJ      0400   62 67  210/  6/  8 1014.4F
LEWES DE         0400   57 62  180/  4/  6 1014.6F
15NM E FENWICK I 0400   66 66  220/ 14/ 16 1015.0F   4/ 5   2/11
OCEAN-CITY-INLET 0400   60 65  230/  3/  3 1014.5F
WACHAPREAGUE VA  0400   61 61  230/  5/  7 1015.1F
THOMAS POINT MD  0400   62 64  210/ 14/ 15 1014.9F
GOOSES REEF MD   0400   62     210/ 12/ 14 1014.7F
COVE POINT MD    0400   59     210/  8/  9 1014.1F
SOLOMONS ISLAND  0400      66                N/A
BISHOPS HEAD MD  0400   62 58  200/  8/  9 1014.0F
PINEY POINT MD   0400          190/  7/  9   N/A
POTOMAC MD       0400   61     210/  8/ 10 1014.0F
CAMBRIDGE MD     0400   57 63  150/  2/  4 1014.1F
LEWISETTA VA     0400   58 62  200/  6/  7 1014.0F
RAPPAHANNOCK LGT 0400          210/ 16/ 18 1015.3F
STINGRAY PT      0400   64     210/ 10/ 12 1015.5S
YORK RVR RNG VA  0400   63     210/ 11/ 12 1014.3F
YORKTOWN VA      0400   61 67  200/  6/  7 1014.5F
JAMESTOWN VA     0400   59     210/  4/  6   N/A
DOMINION TERM VA 0400   61     200/  9/ 12 1015.2F
KIPTOPEKE VA     0400      69  200/ 14/ 17   N/A
CHES BAY BRIDGE  0400   63 68  180/ 13/ 15 1014.5F
CHESAPEAKE LGHT  0300   67     200/ 19/ 20 1016.1F
WILLOUBY STN VA  0400   63     200/ 15/ 17 1013.6F
S CRANEY ISL VA  0400          190/  7/  9 1014.9F
CAPE HENRY BUOY  0300      68                N/A     3/ 5   2/11
1ST LANDING BUOY 0400   63     200/ 12/ 14 1014.9F
CAPE CHARLES BUO 0400      68                N/A     3/ 5   2/11
64NM E OF VA BCH 0400   70 69  240/ 14/ 16 1015.2F   4/ 5   2/10
DUCK PIER NC     0400   65 69  190/  6/  8 1014.7F
44100 DUCK FRF   0300      71                N/A     3/11   2/11
44056 DUCK FRF   0300                        N/A     2/11   2/11
OREGON INLET NC  0400   66 67  160/  4/  5 1015.6F
HATTERAS NC      0400   71 71  180/ 10/ 17 1016.4F
DIAMOND SHLS NC  0400   72     180/ 16/ 19 1016.3F   4/ 8   2/ 8
CAPE LOOKOUT NC  0300   73     170/ 10/ 12 1015.8F
$$



USA.gov is the U.S. government's official web portal to all federal, state and local government web resources and services.